FENGYUN 1C DEB, 31903

Orbit data source: Space-Track

FENGYUN 1C DEB, 31903 is space debris in SSO originally from a launch on Mon, 10 May 1999 UTC launched from the Taiyaun Space Center, China (TSC). Fengyun 1C debris stems from the Chinese weather satellite Fengyun-1C, which was intentionally destroyed by a Chinese anti-satellite missile in 2007. This event dramatically increased the amount of space debris, with thousands of trackable fragments posing hazards to satellites and human spaceflight. The Fengyun 1C debris cloud has become a focal point in discussions about space sustainability and the need for international regulations to prevent the creation of new debris.

Loading next visibility...
Identifier
31903, 1999-025CLE
Orbit
SSO
Country
Flag of CNCN / PRC
Related business
Manufacturer
Unknown
Mission
Spacecraft
Bus & Motor
Unknown
Mass
Unknown
Launch date (UTC)
1999-05-10 (27 years ago)
Launch vehicle
Unknown
Launch site
Taiyaun Space Center, China (TSC)
Object type
Payload
Rocket body
Debris
Shape & HBR
Unknown shape, 0.1 m
Radar Cross Section
Small (<0.1 m²)

Expand to show TLE details & history
Last TLE update: 1 day ago

TLE from 1 day ago
0 FENGYUN 1C DEB
1 31903U 99025CLE 26228.01295357  .00001567  00000-0  29044-3 0  9994
2 31903  99.2770 251.2378 0126106  10.1777 350.1930 14.62062084  9765
Epoch: 2026-08-16T00:18Z
TLE epoch observation values (Epoch: 2026-08-16T00:18:39.188Z)
Latitude
-0.00002°
Longitude
-77.84106°
Altitude
601.704 km
Speed
7.606 km/s
True Right ascension
16h 44m 57s
True Declination
0° 00' 00"
Sunlit
Object was in daylight at epoch
Visualization orbit readout
Latitude
Unknown
Longitude
Unknown
Altitude
Unknown
Speed
Unknown
Apparent Right ascension
Unknown
Apparent Declination
Unknown
Sunlit
N/A
Visualization observer readout
Local Sidereal Time
17:13:25
Azimuth
Unknown
Elevation
Unknown
Doppler factor
Unknown
Orbital elements
Apogee altitude
772.707 km
Perigee altitude
594.601 km
Semi-major axis
7,061.791 km
Eccentricity
0.01261
Inclination
99.277°
RAAN
251.2378°
Arg. of periapsis
10.1777°
True anomaly
349.94298°
Mean anomaly
350.193°
Eccentric anomaly
350.06838°
Mean motion
3.65739 °/min
Orbital period
98.43 mins
BSTAR
0.00029044
Loading maneuver chart data...
Computing Atmospheric mass density...
Loading historical data...
Loading historical data...
Loading historical data...
Loading historical data...
Loading historical data...
Loading historical data...
Loading historical data...

Documentation

Showing up to 5 results
|